067  
ASHW40 PHFO 300243  
RWRHI  
 
WEATHER ROUNDUP FOR HAWAII  
NATIONAL WEATHER SERVICE HONOLULU HI  
400 PM HST TUE JUL 29 2014  
 
THIS IS AN AUTOMATED REPORT THAT HAS NOT BEEN QUALITY CONTROLLED.  
 
NOTE..."FAIR" INDICATES FEW OR NO CLOUDS BELOW 12,000 FEET WITH NO  
SIGNIFICANT WEATHER AND/OR S TO VISIBILITY
.  
 
* - THESE SITES REPORT LIMITED FIELDS  
 
HIZ001>004-300300-  
KAUAI-NIIHAU-  
 
CITY SKY/WX TMP DP RH WIND PRES REMARKS
 
LIHUE APT MOSUNNY 84 69 60 NE13 30.03F  
PORT ALLEN* N/A 88 N/A N/A E16G24 N/A  
POIPU* N/A 84 N/A N/A NE9G17 N/A  
PRINCEVILLE* NOT AVBL  
KOKOLE POINT* NOT AVBL  
MOLOAA DAIRY* NOT AVBL  
WAIMEA HTS* N/A 88 66 48 SW8G14 N/A HX 90  
PUU OPAE* N/A 75 66 73 CALM N/A  
PUU LUA* NOT AVBL  
MAKAHA RIDGE* NOT AVBL  

 
 
HIZ005>011-300300-  
OAHU-  
 
CITY SKY/WX TMP DP RH WIND PRES REMARKS
 
HONOLULU MOSUNNY 87 63 44 NE15G21 29.99S  
KALAELOA SUNNY 88 64 44 E12G17 29.99F  
KANEOHE MCB SUNNY 84 66 54 NE9 30.01F  
WHEELER FIELD FAIR 83 65 54 E16 30.01S  
BELLOWS* N/A N/A N/A N/A NE16 N/A  
KAHUKU* N/A N/A N/A N/A NE10G20 N/A  
WHEELER* NOT AVBL  
WAIANAE HARBOR NOT AVBL  
DILLINGHAM* N/A 91 66 43 NE9G20 N/A HX 94  
KAHUKU TRN* N/A 81 68 65 E10G23 N/A  
KAWAILOA* NOT AVBL  
KII* N/A 82 72 69 CALM N/A  
MAKUA RANGE* N/A 88 70 55 W5G12 N/A HX 92  
OAHU FOREST NW N/A 68 66 94 N18G33 N/A  
SCHOFIELD BRK* N/A 81 64 57 MISG N/A  
SCHOFIELD S* NOT AVBL  
WAIANAE VLY* N/A 88 63 42 SE3G23 N/A  
KUAOKALA* N/A 79 64 61 CALM N/A  
HONOULIUULI* NOT AVBL  
MOKUOLOE IS* N/A N/A N/A N/A MISG N/A  
PALEHUA* N/A 88 64 45 CALM N/A  
WAIAWA PHB* NOT AVBL  

 
 
HIZ012>013-300300-  
MOLOKAI-  
 
CITY SKY/WX TMP DP RH WIND PRES REMARKS
 
MOLOKAI AIRPT SUNNY 82 69 64 NE18G29 30.00F  
KALAUPAPA NOT AVBL  
MAKAPULAPAI* N/A 82 68 61 E17G25 N/A  
MOLOKAI 1* N/A 75 63 64 E8G20 N/A  
PUU ALII* N/A 72 61 67 E2G8 N/A  

 
 
HIZ016-300300-  
KAHOOLAWE-  
 
CITY SKY/WX TMP DP RH WIND PRES REMARKS
 
KAHOOLAWE* N/A 75 N/A N/A E15G25 N/A  
HAKIOAWA* N/A 78 67 69 MISG 30.12S  
HONOKANAIA* N/A 85 69 58 E20G38 29.99  
KANELOA* N/A 79 66 65 E20G33 30.09S  
KEALIALALO* N/A N/A N/A N/A E17G31 N/A  
LUA MAKIKA* NOT AVBL  

 
 
HIZ014>015-300300-  
LANAI-  
 
CITY SKY/WX TMP DP RH WIND PRES REMARKS
 
LANAI CITY FAIR 82 65 56 NE21G28 30.03F  
LANAI 1* N/A 79 72 78 NE22G40 N/A  

 
 
HIZ017>028-300300-  
MAUI-  
 
CITY SKY/WX TMP DP RH WIND PRES REMARKS
 
KAHULUI MOSUNNY 85 67 54 NE24G31 29.99F  
KAPALUA-W MAUI MOSUNNY 82 64 54 NE17G29 29.99F  
HANA AIRPORT SUNNY 82 68 61 E6 30.04F  
HANA* N/A 81 N/A N/A E10 N/A  
HALEAKALA SUMM N/A 54 39 58 E2G15 N/A  
MAALAEA BAY* NOT AVBL  
HALEAKALA* NOT AVBL  
KAUPO GAP* N/A 73 64 73 S5G12 N/A  
KULA 1* N/A 61 56 83 SW5G13 N/A  

 
 
HIZ023>026-300300-  
BIG ISLAND OF HAWAII COAST AND LOWER SLOPES-  
 
CITY SKY/WX TMP DP RH WIND PRES REMARKS
 
KAILUA KONA PTSUNNY 85 72 65 S16 29.94F HX 91  
HILO PTSUNNY 82 70 66 NE10 30.00F  
HONOKAA* NOT AVBL  
KAWAIHAE MWT* N/A 86 N/A N/A W13 N/A  
KAWAIHAE* N/A 82 N/A N/A SW13 N/A  
SOUTH POINT* N/A 77 N/A N/A NE18G28 N/A  
UPOLU AIRPORT* N/A N/A N/A N/A NE20G28 N/A  
KAMUELA* CLEAR 75 63 64 NE16 30.10S  
HAKALAU* N/A 58 54 88 NE5 N/A  
KALOKO-HONOKO* N/A 86 70 58 S9G16 29.94F HX 90  
PALI 2* N/A N/A N/A N/A N17G28 N/A  
KEALAKOMO* N/A 86 72 62 E20G30 N/A HX 92  
KAUPULEHU* N/A 86 64 48 W9G25 N/A  
KAPAPALA* N/A 76 67 72 SW7G13 N/A  
LOWER KAHUKU* NOT AVBL  
PUHE CS* NOT AVBL  
PUHO CS* N/A 82 67 59 SW3 N/A  
PTA KEAMUKU* N/A 73 59 60 NE18G26 N/A  
WAIKOLOA* N/A 82 59 44 NE12G20 N/A  

 
 
HIZ027>028-300300-  
BIG ISLAND OF HAWAII INTERIOR AND SUMMMITS-  
 
CITY SKY/WX TMP DP RH WIND PRES REMARKS
 
BRADSHAW FIELD SUNNY 71 35 26 W13G18 30.31F  
MK VISITOR CEN NOT AVBL  
MAUNA KEA* N/A 43 23 45 E1 N/A  
MAUNA LOA* N/A 43 41 93 MISG N/A  
MAUNA LOA 1* N/A 45 43 93 MISG N/A  
PTA KIPUKA* N/A 72 54 53 N8G15 N/A  
PTA RANGE 17* N/A 72 52 49 W13G21 N/A  
PTA WEST* N/A 73 55 53 N12G22 N/A  
NENE CABIN* NOT AVBL  
AHUMOA* N/A 62 54 75 N10G16 N/A  
PTA PORTABLE* NOT AVBL  
PUU MALI* NOT AVBL  

 
 
HIC003-300300-  
NORTHWEST ISLANDS-  
 
CITY SKY/WX TMP DP RH WIND PRES REMARKS
 
MIDWAY ISLAND SUNNY 84 75 74 SW14 30.01F HX 92  
MIDWAY NOS* NOT AVBL  
FRENCH FRIGATE NOT AVBL  

 
 
PHZ110>124-180-300300-  
BUOY REPORTS  
 
STATION/POSITION TIME TEMP WIND PRES WAVE SWELL
 
AIR SEA DIR/SP/G HT/PER HT/DIR  
(UTC) (F) (DEG/KT/KT) (MB) (FT/S) (FT/D)  
BUOY 51001 NOT AVBL  
BUOY 51101 NOT AVBL  
BUOY 51100 0200 78 78 90/ 12/ 14 1017.2F  
BUOY 51003 0200 81 82 70/ 14/ 17 1014.6F 7/ 7 5  
BUOY 51004 0059 79 80 50/ 16/ 17 1013.8 8/ 8 5/ 90  
BARBERS PT BUOY NOT AVBL  
WAIMEA BAY BUOY 0200 80 N/A 3/ 5  
KAILUA BAY BUOY 0200 81 N/A 5/ 9 2/ 80  
LANAI BUOY 0200 81 N/A 3/14 2/200  
BARBERS PT 2 0200 81 N/A 4/15 2/200  
PAUWELA MAUI 0200 79 N/A 5/ 9 2/100  
HILO NOT AVBL  
KANEOHE BAY BUOY 0200 80 N/A 4/ 8  
HANALEI KAUAI NOT AVBL  
KAHULUI HARBOR 0200 79 81 30/ 17/ 20 1015.7F  
HONOLULU HARBOR 0200 83 90/ 6/ 16 1015.8F  
KILO NALU NOT AVBL  
HILO HARBOR 0200 80 360/ 8/ 15 1015.4F  
MOKUOLOE 0200 83 1016.5F  
NAWILIWILI 0200 82 N/A  
WHOTS BUOY NOT AVBL  
BUOY 51028 NOT AVBL  

 
   
.....................KEY.....................................
 
 
SKY/WX - SKY CONDITIONS/PRESENT WEATHER  
TMP - TEMPERATURE IN FAHRENHEIT  
DWPT - DEWPOINT IN FAHRENHEIT  
RH - RELATIVE HUMIDITY IN PERCENT  
WIND - DIRECTION AND SPEED /MPH FOR ISLANDS...KTS FOR BUOYS/  
PRES - MEAN SEA LEVEL PRESSURE IN INCHES OF HG  
VSB - VISIBILITY IN MILES  
HX - HEAT INDEX  
WCI - WIND CHILL INDEX  
VRB - VARIABLE WIND DIRECTION  
N/A - NOT AVAILABLE  
 
CLICK HERE TO GO TO PREVIOUS BULLETINS.

The Nexlab HI Page Main Text Page